Temp_Advection
nan nan nan nan nan nan nan nan nan nan nan nan nan nan nan nan nan nan nan nan nan nan nan nan nan nan nan nan nan nan nan nan nan nan nan nan nan nan nan nan nan nan nan
nan 0 0 0 0 -0 0 0 0 0 0 0 0 0 0 0 0 0 0 0 0 0 0 0 0 0 0 0 0 0 0 0 0 0 0 0 0 -0 -0 -0 0 0 nan
nan 1 0 0 0 0 0 0 0 0 0 0 0 0 0 0 0 0 0 0 0 0 0 0 0 0 0 -0 0 0 0 0 -0 -0 -0 -0 0 0 -0 -0 -0 0 nan
nan 0 1 0 0 0 0 0 0 0 0 0 0 0 0 0 0 0 0 0 0 0 0 0 0 -0 -0 0 0 -0 0 0 -0 -0 0 -0 0 0 0 0 0 0 nan
nan 0 1 0 0 0 0 0 0 0 0 0 0 0 0 0 0 0 0 0 0 0 0 0 0 -0 -0 0 0 0 0 0 -0 -0 -0 -0 0 0 0 0 0 0 nan
nan 0 -0 0 0 1 0 0 0 0 0 0 0 0 0 0 0 0 0 0 0 0 0 0 0 0 0 0 -0 0 0 -0 -0 -0 -0 0 -0 0 0 0 0 0 nan
nan 0 0 0 0 1 1 0 0 0 0 0 0 0 0 0 0 0 0 0 0 0 0 0 0 0 0 0 -0 0 0 0 0 0 0 0 -0 0 0 0 0 0 nan
nan 0 0 -0 1 1 1 0 0 0 0 0 0 0 0 0 0 0 0 0 0 0 0 0 0 0 0 0 0 0 -0 0 -0 0 0 0 -0 0 0 0 0 0 nan
nan 0 -0 -0 0 0 0 0 0 0 0 0 0 0 0 0 0 0 0 0 0 0 0 0 0 0 0 0 0 0 0 0 0 0 0 -0 -0 0 0 0 0 0 nan
nan 0 -0 0 1 1 1 0 0 0 0 0 0 0 0 0 0 0 0 0 0 0 0 0 0 0 0 0 0 0 0 0 0 0 -0 -0 -0 0 0 0 0 0 nan
nan 0 0 0 1 1 -0 1 0 0 0 0 0 0 0 1 1 1 0 0 0 0 0 0 0 0 0 0 0 0 0 0 -0 -0 0 0 0 0 0 0 0 0 nan
nan 1 0 0 0 -0 -0 0 0 1 1 1 0 1 1 1 0 0 -0 0 0 0 0 0 0 0 0 0 0 0 0 -0 -0 0 0 0 0 0 0 0 0 0 nan
nan 1 0 0 -0 -1 -0 0 0 0 0 0 1 0 1 0 -0 -0 -0 0 0 0 0 0 0 0 0 0 0 0 -0 -0 -0 0 0 0 0 0 0 0 0 0 nan
nan 0 0 0 -0 -0 1 1 -1 -0 -0 0 0 0 0 -0 -0 -0 -0 0 0 0 0 0 0 0 0 0 0 -0 -0 -0 -0 0 0 0 0 0 0 0 0 -0 nan
nan 0 0 0 -0 0 1 0 -0 0 0 0 0 0 -0 -0 0 -0 -0 -0 -0 -0 0 0 0 0 -0 0 0 0 0 -0 0 0 0 -0 0 0 0 0 0 -0 nan
nan 0 0 0 0 0 0 0 -0 0 1 0 0 0 -1 -0 0 -0 -0 -0 -0 -0 0 0 0 -0 -0 -0 0 0 0 0 0 0 0 -0 0 0 0 0 0 0 nan
nan 0 0 0 0 0 0 0 0 0 -0 -0 0 -1 -1 -1 0 0 -0 -0 -0 0 0 0 0 0 -0 0 0 0 -0 0 0 0 0 0 0 0 0 0 0 0 nan
nan 0 0 0 0 0 -0 0 0 0 -0 0 0 -0 -1 -1 -0 -0 -0 -0 0 1 0 0 0 0 0 0 0 -0 0 0 0 0 0 0 0 -0 0 0 0 0 nan
nan -0 -0 -0 -0 -0 -0 0 0 -0 -0 -0 0 0 -1 -1 1 1 0 -0 0 0 1 1 0 0 0 -0 0 0 0 0 0 0 0 0 0 0 0 0 0 0 nan
nan -1 -1 -1 -0 -0 -0 -1 -0 0 0 -0 -0 -0 -0 -0 0 3 1 -0 -1 -0 -0 1 0 0 -0 0 0 0 0 0 0 0 -0 0 0 0 0 0 0 0 nan
nan -1 -1 -1 -1 -1 -1 -1 -0 -0 -0 -0 -0 -0 0 0 1 1 -0 -1 -1 -1 1 2 0 0 0 0 0 0 0 0 0 -0 -0 0 0 0 0 0 -0 -0 nan
nan -1 -1 -1 -1 -1 -1 -1 -1 -1 0 0 0 0 0 -0 -0 -0 -0 -0 -0 -0 1 2 0 -0 0 0 0 0 0 -0 -1 -0 -0 0 1 0 0 0 -0 -0 nan
nan -0 -0 -1 -1 -1 -1 -1 -2 -1 -1 -0 0 0 0 -0 0 -0 -0 1 0 -1 1 0 -1 -1 0 -0 0 -0 -0 -1 -0 0 1 0 0 0 -0 0 -0 0 nan
nan -0 -0 -0 -1 -1 -1 -1 -2 -2 -2 -0 1 0 -0 0 -0 0 1 1 -0 -0 -1 -1 0 1 1 1 0 -0 -1 -0 0 0 0 0 0 0 -0 -1 -0 1 nan
nan -1 -0 -1 -1 -1 -1 -1 -2 -2 -2 -2 -1 -0 1 0 0 1 1 1 1 -1 -2 1 2 2 1 0 0 1 -0 1 0 -0 1 1 0 -0 -0 -0 -0 0 nan
nan nan nan nan nan nan nan nan nan nan nan nan nan nan nan nan nan nan nan nan nan nan nan nan nan nan nan nan nan nan nan nan nan nan nan nan nan nan nan nan nan nan nan
Wind_Speed
2 9 22 21 19 17 15 14 13 13 14 15 16 17 14 13 12 12 12 11 12 13 12 11 11 10 9 8 8 9 6 4 5 5 7 10 11 12 13 14 13 14 15
5 17 21 22 19 17 16 15 13 13 15 16 17 19 15 13 12 12 12 11 11 12 11 11 11 10 9 8 8 8 4 5 5 6 9 10 10 12 13 14 14 14 15
5 19 22 24 20 18 16 15 14 14 16 17 19 19 16 13 13 13 12 11 11 11 11 10 10 9 8 8 10 7 4 5 5 8 9 8 10 12 12 12 13 15 15
4 14 26 27 22 20 18 16 15 15 16 18 19 19 17 14 13 13 12 11 10 11 10 9 9 9 9 9 9 5 5 6 8 11 10 9 10 12 11 11 14 15 15
4 13 23 27 24 21 19 18 17 16 17 18 19 19 17 15 14 14 12 11 10 10 11 10 9 10 9 8 7 6 7 8 11 8 6 9 9 12 11 12 12 13 14
4 11 20 26 24 22 20 19 18 17 17 18 19 19 17 16 16 15 13 12 11 11 11 11 10 10 9 8 7 7 7 8 8 8 10 7 9 11 12 14 14 14 13
4 12 19 24 24 23 22 21 19 17 17 18 19 19 19 18 17 16 14 13 12 12 12 11 10 10 9 8 8 8 8 9 10 7 9 8 10 11 13 13 13 14 13
5 12 17 23 26 24 22 21 19 18 18 18 19 20 20 19 18 17 15 14 13 13 12 12 11 10 9 8 8 8 8 12 6 8 9 11 11 13 14 14 13 13 12
5 11 16 22 27 25 23 21 19 18 18 18 18 19 20 20 19 18 16 15 15 14 13 13 12 11 10 9 9 8 9 10 10 5 9 10 10 14 15 15 14 14 11
3 11 16 18 27 27 25 23 21 20 19 19 18 18 19 20 20 19 18 16 16 15 14 13 13 12 11 10 10 9 9 11 10 9 4 9 9 14 16 15 16 14 13
12 11 17 18 24 21 22 26 23 21 20 19 19 19 20 20 21 21 19 18 17 16 15 14 14 13 12 12 11 10 11 10 5 6 5 13 14 14 15 17 17 15 12
9 10 17 20 23 20 19 19 25 24 24 23 23 23 23 21 18 18 18 20 18 17 15 15 15 14 14 14 15 13 12 9 8 9 10 14 15 15 16 19 19 15 11
8 9 13 19 22 29 22 19 19 19 21 24 24 22 25 19 19 20 18 22 21 20 19 18 18 18 17 12 12 13 11 9 10 10 13 14 12 15 16 19 21 17 13
8 6 12 15 19 25 30 24 22 20 20 21 22 25 22 21 23 20 21 18 22 20 20 19 18 19 16 17 16 13 12 12 11 11 16 14 14 16 17 19 22 20 17
7 6 5 11 16 19 24 27 32 30 27 24 22 24 25 23 23 22 22 20 21 19 21 21 20 18 20 20 20 19 17 14 14 12 13 12 14 15 16 18 21 20 20
10 9 8 10 13 18 21 23 26 29 25 27 26 29 30 26 29 23 23 22 20 21 24 21 22 23 24 21 20 21 19 17 16 15 13 14 17 16 15 17 19 20 23
13 12 11 11 14 16 20 21 26 23 27 27 25 30 35 33 25 28 31 24 22 22 23 22 22 24 23 20 20 20 19 18 20 20 16 15 15 19 19 18 18 19 28
13 12 12 11 13 15 18 19 22 24 28 29 29 30 31 35 35 30 30 33 24 23 23 27 25 23 25 23 22 20 20 18 22 20 17 19 17 14 18 21 18 18 21
13 13 13 13 14 16 19 21 23 24 26 29 31 31 32 35 38 37 30 34 33 25 27 29 29 28 27 22 22 21 20 18 18 18 20 21 20 20 14 19 23 16 13
15 16 16 15 14 14 18 24 24 25 27 31 32 34 32 33 37 40 32 32 35 36 34 29 32 29 26 24 24 20 22 20 19 19 18 19 22 22 24 25 24 23 25
17 18 17 16 15 15 14 17 23 29 30 31 34 34 35 35 35 35 33 32 35 38 43 38 31 32 31 26 22 21 20 23 21 19 17 20 22 22 26 26 29 27 23
19 20 20 19 17 15 15 16 20 27 32 35 35 37 39 36 37 38 37 37 37 37 39 42 40 35 34 31 27 20 16 23 23 23 23 22 23 21 24 26 27 25 24
21 21 22 22 20 19 17 19 21 25 32 30 40 41 39 41 40 42 41 42 42 41 37 41 42 43 39 37 33 21 11 17 14 22 25 25 25 25 24 27 27 28 28
24 22 21 23 22 20 19 19 21 24 28 33 36 36 41 41 45 45 44 42 43 45 40 38 41 45 42 41 40 40 26 13 13 13 16 17 19 24 23 24 23 26 29
25 25 25 24 23 21 21 21 22 24 27 30 30 39 39 41 43 47 48 46 45 44 43 39 40 44 47 44 44 38 37 32 24 18 17 15 16 18 21 20 23 21 23
27 27 26 26 24 22 21 23 25 26 28 29 31 30 40 41 45 48 49 47 48 45 41 40 40 40 44 44 44 38 33 34 29 26 26 24 22 17 18 20 24 19 19
Wind_Direction
301 219 197 190 182 181 185 185 183 187 193 198 194 188 184 182 181 172 167 166 166 165 169 171 173 174 178 183 173 162 166 185 159 152 148 147 143 134 130 127 115 131 127
312 237 213 195 189 186 186 185 182 183 192 200 195 191 189 190 186 179 175 172 173 172 173 171 172 171 173 177 173 167 159 144 143 141 140 142 142 141 138 130 142 134 134
280 228 214 199 193 191 188 186 182 182 190 194 194 192 193 194 191 186 183 179 178 175 171 172 175 179 175 173 169 174 163 156 140 135 125 120 150 152 152 147 147 141 141
216 213 202 196 196 193 190 189 185 184 184 191 193 196 197 198 197 195 192 187 185 181 183 180 170 172 169 173 176 184 169 152 138 132 127 156 152 158 156 158 155 147 144
205 200 195 193 196 196 194 193 189 186 185 190 195 198 201 202 200 200 199 196 194 192 189 184 177 171 173 181 188 177 167 152 141 131 159 163 168 168 164 159 153 148 151
208 197 210 195 195 199 198 196 193 189 187 190 196 199 203 205 203 204 205 203 201 199 198 194 187 183 183 183 186 179 171 155 129 138 155 201 165 176 164 162 160 161 154
185 191 223 205 198 202 202 199 195 192 192 194 198 202 204 205 205 209 211 207 205 203 203 200 196 196 193 190 182 184 174 145 146 170 210 186 195 186 172 173 171 169 162
193 191 240 213 202 202 206 204 198 195 196 198 200 203 205 206 206 209 213 212 208 207 204 202 205 205 205 198 189 187 176 160 132 194 194 193 204 191 181 178 177 175 170
203 207 236 211 203 203 206 208 206 203 200 201 204 206 207 206 209 213 213 215 211 209 207 209 211 211 212 204 198 188 185 174 172 220 203 197 207 194 191 184 182 181 183
255 218 227 223 206 204 206 208 208 210 206 205 207 208 209 209 211 214 215 214 215 213 211 215 219 216 212 209 202 195 188 170 153 207 214 226 227 202 201 190 188 186 193
312 216 218 232 209 204 208 211 208 211 211 209 209 210 212 213 215 217 214 216 214 216 217 216 220 218 213 208 204 203 196 187 203 216 215 229 246 215 204 201 197 200 198
281 265 221 219 213 199 204 219 210 212 213 211 210 211 212 209 214 210 217 217 214 220 221 218 218 216 212 211 209 205 203 191 229 220 238 243 243 225 212 207 204 214 214
282 255 249 224 219 211 189 215 211 211 214 215 212 211 211 209 216 202 218 222 215 214 220 219 215 214 209 198 213 211 211 206 222 227 236 253 251 222 219 218 215 222 229
278 258 241 223 230 224 213 204 203 210 218 217 214 209 206 203 218 207 214 214 213 216 214 222 219 213 208 194 217 220 213 215 224 231 241 245 247 225 221 223 224 234 234
288 274 252 231 225 228 222 221 221 205 209 207 217 219 205 205 216 215 216 217 217 215 213 218 219 214 210 207 205 219 209 217 221 227 249 251 235 228 227 231 231 240 242
280 276 270 234 246 232 230 220 234 225 212 224 209 212 209 210 212 206 216 214 217 213 213 213 216 218 214 213 214 218 217 215 223 232 244 255 243 236 241 239 242 245 253
278 274 271 274 244 249 232 236 231 228 224 219 219 227 220 205 219 219 205 212 218 218 218 214 216 222 221 223 220 224 218 222 218 229 225 256 258 248 247 245 248 254 261
285 277 274 271 270 252 243 238 239 234 227 218 227 229 229 225 212 223 225 205 212 217 223 216 214 217 224 221 222 220 230 228 222 227 229 224 246 264 245 234 242 251 269
295 300 289 281 278 269 248 242 241 240 236 230 219 233 229 234 229 216 229 226 207 213 226 219 216 219 218 219 222 230 227 227 235 231 233 234 231 233 256 241 232 238 268
303 302 298 292 283 278 253 237 240 239 236 236 226 226 235 230 234 228 220 230 227 210 218 220 217 219 218 216 220 223 234 236 231 235 239 245 237 237 233 239 233 256 266
309 306 302 298 295 289 273 256 243 240 237 234 235 227 229 222 227 229 217 230 234 232 227 225 216 217 217 217 215 223 229 235 243 234 237 237 242 238 252 246 252 257 269
312 309 306 300 296 291 278 264 250 244 242 238 236 232 228 224 221 225 222 213 231 235 231 227 222 216 219 216 215 218 224 232 236 238 235 236 237 236 249 250 254 262 262
312 311 307 302 296 290 280 277 269 252 237 239 232 231 229 224 222 226 225 222 218 236 233 225 228 218 222 217 215 205 212 233 240 240 242 240 245 250 246 257 256 258 257
316 309 304 301 298 292 286 278 268 255 248 242 238 237 227 228 222 226 227 223 220 234 234 236 232 227 222 223 222 227 221 228 232 226 222 237 238 241 248 254 267 265 261
317 310 304 301 300 296 285 277 271 262 256 257 249 235 231 226 227 225 226 222 223 231 236 236 233 229 227 226 230 225 230 231 242 248 244 219 232 239 247 258 258 254 257
319 315 308 303 299 298 290 281 272 266 259 255 256 253 229 231 226 228 227 225 224 229 231 234 238 233 228 230 233 227 226 224 232 237 244 250 249 246 253 247 257 263 252
Height
1487 1484 1486 1489 1491 1494 1496 1500 1501 1503 1506 1507 1510 1512 1514 1515 1516 1517 1518 1519 1520 1521 1522 1523 1525 1526 1527 1528 1529 1530 1531 1531 1532 1532 1532 1533 1534 1535 1537 1537 1540 1540 1540
1486 1483 1486 1488 1490 1493 1496 1499 1501 1503 1506 1508 1510 1513 1515 1517 1518 1519 1520 1521 1522 1523 1524 1525 1526 1527 1528 1528 1530 1531 1532 1532 1533 1534 1534 1535 1536 1538 1539 1540 1541 1542 1543
1483 1480 1483 1486 1489 1492 1495 1498 1501 1503 1506 1508 1511 1513 1516 1517 1519 1520 1522 1522 1523 1524 1525 1526 1526 1528 1529 1530 1531 1532 1533 1534 1534 1536 1537 1538 1538 1539 1540 1542 1542 1543 1544
1481 1480 1481 1484 1488 1491 1494 1497 1500 1503 1505 1508 1510 1513 1515 1517 1519 1521 1522 1523 1525 1525 1526 1527 1527 1528 1530 1531 1532 1533 1534 1535 1536 1538 1539 1540 1541 1540 1542 1543 1544 1545 1546
1482 1482 1480 1484 1487 1490 1493 1496 1498 1501 1505 1507 1510 1513 1515 1517 1518 1521 1522 1523 1525 1526 1527 1528 1528 1529 1530 1532 1533 1534 1536 1536 1537 1539 1541 1541 1542 1542 1543 1544 1546 1547 1547
1483 1484 1481 1484 1487 1490 1492 1495 1498 1501 1503 1506 1509 1511 1514 1517 1519 1521 1522 1524 1525 1526 1527 1528 1529 1530 1531 1532 1534 1535 1537 1537 1538 1540 1539 1542 1542 1543 1544 1545 1547 1548 1549
1483 1485 1483 1484 1487 1490 1493 1495 1497 1500 1503 1506 1508 1511 1513 1515 1518 1521 1522 1524 1526 1527 1528 1529 1530 1531 1531 1532 1533 1535 1537 1539 1539 1542 1543 1543 1543 1544 1545 1547 1548 1549 1551
1484 1485 1481 1484 1486 1490 1494 1496 1498 1499 1502 1506 1508 1510 1513 1515 1517 1519 1522 1524 1526 1527 1528 1529 1531 1532 1532 1532 1533 1535 1537 1539 1540 1542 1542 1543 1543 1544 1546 1548 1549 1550 1552
1481 1484 1482 1482 1486 1489 1493 1497 1500 1500 1501 1505 1507 1510 1512 1514 1517 1519 1521 1523 1525 1526 1528 1530 1530 1531 1533 1533 1534 1535 1537 1539 1540 1541 1542 1543 1544 1545 1546 1547 1549 1551 1552
1480 1482 1483 1482 1484 1487 1491 1494 1498 1501 1502 1503 1506 1509 1512 1514 1516 1518 1520 1522 1524 1525 1527 1529 1530 1531 1532 1533 1535 1535 1537 1538 1540 1541 1543 1544 1544 1545 1546 1548 1549 1551 1552
1478 1478 1481 1481 1483 1487 1489 1492 1495 1499 1502 1503 1505 1508 1511 1513 1515 1517 1518 1520 1522 1524 1526 1527 1529 1530 1531 1533 1534 1535 1537 1538 1541 1543 1543 1543 1544 1545 1546 1547 1549 1550 1552
1480 1476 1476 1477 1481 1487 1491 1491 1493 1496 1499 1500 1502 1504 1508 1511 1513 1516 1517 1518 1520 1522 1524 1526 1527 1528 1530 1531 1532 1534 1536 1539 1542 1543 1542 1542 1544 1545 1545 1547 1549 1550 1552
1478 1477 1474 1476 1477 1480 1488 1492 1492 1494 1497 1498 1499 1501 1505 1510 1512 1513 1516 1515 1517 1519 1521 1523 1524 1526 1529 1532 1533 1533 1535 1538 1541 1542 1541 1541 1542 1543 1545 1546 1547 1549 1551
1477 1476 1475 1474 1475 1477 1482 1485 1489 1493 1495 1498 1498 1499 1501 1506 1510 1512 1513 1513 1514 1516 1518 1519 1521 1523 1527 1530 1531 1532 1535 1537 1539 1541 1539 1540 1540 1542 1543 1544 1546 1548 1550
1476 1476 1475 1473 1474 1475 1476 1479 1481 1484 1486 1493 1497 1497 1500 1501 1504 1510 1511 1511 1512 1515 1515 1517 1518 1522 1525 1527 1529 1529 1531 1534 1536 1538 1537 1538 1538 1540 1541 1543 1544 1546 1547
1474 1475 1474 1473 1473 1473 1474 1476 1477 1479 1485 1484 1486 1490 1495 1499 1499 1504 1509 1511 1511 1512 1512 1514 1516 1517 1521 1523 1525 1527 1528 1530 1533 1535 1536 1535 1537 1538 1539 1541 1542 1543 1544
1471 1472 1472 1472 1470 1471 1471 1473 1474 1476 1479 1482 1482 1482 1486 1492 1495 1495 1501 1506 1509 1510 1509 1510 1513 1515 1517 1520 1522 1524 1525 1526 1527 1530 1533 1534 1534 1535 1537 1538 1540 1542 1541
1470 1469 1468 1469 1469 1468 1469 1470 1472 1472 1474 1476 1479 1477 1478 1483 1489 1491 1492 1497 1503 1507 1506 1507 1508 1511 1513 1516 1518 1520 1521 1523 1524 1526 1528 1530 1531 1532 1533 1534 1536 1538 1539
1467 1466 1465 1463 1463 1462 1462 1465 1466 1467 1469 1470 1472 1472 1472 1476 1480 1485 1487 1489 1494 1500 1502 1503 1503 1504 1509 1512 1514 1516 1518 1520 1521 1521 1523 1524 1527 1529 1529 1529 1531 1534 1535
1465 1463 1461 1460 1458 1457 1455 1457 1460 1461 1462 1463 1466 1466 1466 1468 1471 1476 1482 1483 1486 1490 1494 1496 1499 1501 1504 1507 1509 1512 1514 1516 1517 1518 1519 1520 1521 1524 1526 1525 1526 1528 1530
1461 1459 1457 1455 1453 1451 1451 1452 1453 1453 1455 1454 1455 1460 1461 1463 1465 1468 1471 1477 1477 1479 1483 1488 1492 1496 1499 1503 1506 1508 1509 1511 1512 1513 1517 1518 1518 1518 1518 1519 1519 1522 1523
1457 1455 1453 1449 1447 1446 1446 1446 1446 1447 1448 1447 1450 1450 1455 1457 1457 1460 1463 1468 1469 1471 1475 1482 1485 1489 1493 1495 1499 1503 1504 1507 1506 1508 1510 1513 1512 1514 1513 1513 1514 1515 1517
1453 1449 1447 1444 1441 1439 1438 1438 1438 1436 1435 1438 1437 1443 1445 1449 1449 1451 1454 1458 1464 1463 1465 1472 1478 1481 1485 1488 1491 1495 1498 1498 1500 1500 1502 1505 1506 1506 1508 1507 1508 1509 1511
1448 1445 1443 1440 1434 1432 1431 1431 1432 1431 1429 1431 1432 1431 1436 1438 1441 1442 1446 1449 1454 1455 1458 1462 1467 1473 1478 1479 1484 1486 1489 1492 1494 1495 1497 1498 1501 1500 1500 1501 1502 1502 1504
1444 1439 1437 1433 1429 1426 1423 1422 1422 1422 1422 1421 1420 1422 1422 1428 1432 1434 1436 1440 1443 1446 1450 1453 1459 1463 1467 1473 1473 1478 1483 1486 1489 1490 1490 1492 1495 1494 1493 1495 1496 1496 1498
1439 1435 1429 1425 1422 1418 1415 1412 1411 1410 1411 1412 1411 1412 1413 1417 1421 1424 1428 1430 1433 1438 1441 1445 1450 1454 1459 1464 1467 1470 1473 1477 1481 1484 1486 1488 1488 1488 1488 1489 1489 1490 1491